ECMWFNIL_con_mucape_102.txt.gz
CAPE
0 0 0 0 0 0 0 0 0 6 113 175 167 148 141 162 454 676 936 1150 1198 1078 939 940 819 777 740 666 628 568 527 564 559 575 524 426 420 458 491 418 317 335
0 0 0 0 0 0 0 0 0 0 0 0 0 0 2 174 438 616 824 1000 1041 975 899 848 851 825 806 750 657 619 614 600 578 524 459 449 436 460 534 487 324 313
0 0 0 0 0 0 0 0 0 0 0 0 0 0 0 2 109 323 530 743 841 861 881 880 816 826 790 791 764 650 598 584 557 500 456 351 319 352 426 395 344 375
0 0 0 0 0 0 0 0 0 0 0 0 0 0 0 0 0 6 87 477 614 754 833 786 744 755 788 808 785 627 470 468 495 532 520 444 347 364 363 360 352 294
0 0 0 0 0 0 0 0 0 0 0 0 0 0 0 0 0 0 0 13 128 589 637 574 526 611 690 791 801 697 554 466 423 459 461 444 446 432 408 361 360 372
0 0 0 0 0 0 0 0 0 0 0 0 0 0 0 0 0 0 0 0 8 334 535 556 513 552 598 683 714 623 480 411 423 444 424 430 423 442 456 415 371 339
0 0 0 0 0 0 0 0 0 0 0 0 0 0 0 0 0 0 0 0 0 134 294 431 476 504 541 596 628 593 469 399 405 425 454 432 356 287 308 414 454 396
0 0 0 0 0 0 0 0 0 0 0 0 0 0 0 0 0 0 0 0 45 56 152 229 326 426 498 539 558 575 557 492 411 404 434 447 369 374 320 340 493 511
0 0 0 0 0 0 0 0 0 0 0 0 0 0 0 0 0 0 0 1 6 8 72 107 173 262 354 459 466 469 508 513 501 471 480 516 519 448 423 374 396 484
0 0 0 0 0 0 0 0 0 1 1 0 0 0 1 0 1 1 0 2 5 5 10 32 94 205 260 264 360 370 419 470 542 595 535 520 517 566 566 489 429 371
0 0 0 0 0 0 0 1 3 3 4 2 2 1 1 0 0 1 0 2 4 4 8 15 44 116 175 193 217 255 313 414 533 658 674 653 640 596 451 442 366 336
0 0 0 0 0 0 1 1 0 2 2 3 3 0 2 1 0 0 1 1 0 3 9 11 27 9 109 26 1 59 65 270 446 615 652 644 629 594 526 438 329 194
0 0 1 2 1 0 0 0 0 1 0 0 0 1 0 0 0 0 0 0 0 3 6 8 10 42 63 95 1 1 39 148 218 454 598 535 484 485 486 431 360 352
1 3 6 4 2 1 0 0 0 1 1 1 0 0 0 0 0 0 0 0 0 0 1 4 8 8 5 0 0 2 1 2 5 411 476 483 496 475 440 361 292 269
2 2 2 1 1 0 0 0 0 0 0 1 1 0 1 1 1 0 0 0 0 0 0 1 2 4 1 0 0 0 1 166 269 379 429 434 422 417 382 313 342 284
0 0 0 0 0 0 0 0 0 0 0 0 0 0 0 1 1 0 0 0 0 0 0 1 1 2 4 0 11 1 1 1 156 338 400 396 361 322 310 342 351 287
0 0 0 0 0 0 0 0 1 0 0 0 0 0 0 0 1 1 0 0 0 0 0 0 2 3 0 0 0 0 0 1 1 1 119 341 310 269 263 260 276 304
0 0 0 0 0 0 0 0 0 0 1 1 0 0 0 0 0 0 2 1 1 1 0 1 1 0 0 0 0 0 0 0 0 1 6 301 336 245 164 152 200 205
0 0 0 0 0 0 0 0 0 0 0 1 2 2 2 1 1 1 1 1 2 1 0 0 0 0 0 0 0 0 0 0 0 1 278 248 219 119 53 104 198 203
0 0 0 0 0 0 0 0 0 0 0 2 3 2 2 1 0 0 1 1 2 1 1 1 0 0 0 0 0 0 0 4 6 88 184 183 61 45 24 54 191 207
0 0 0 0 0 0 0 0 0 0 0 1 2 2 3 1 1 0 1 2 1 1 0 0 1 0 0 0 0 0 0 14 3 83 248 294 292 273 235 144 206 184
0 0 0 0 0 0 0 0 0 0 0 0 2 2 6 6 2 0 0 0 0 0 0 0 0 0 2 3 4 9 122 185 204 276 242 309 350 142 127 284 274 202
0 0 0 0 0 0 0 0 0 0 0 0 0 1 5 6 3 2 0 0 0 0 0 0 0 0 0 0 0 1 37 55 187 85 111 87 44 177 248 257 241 203
0 0 0 0 0 0 0 0 0 0 0 0 0 0 3 6 8 4 2 0 0 0 1 0 0 2 1 5 0 30 43 92 174 95 47 87 82 0 96 61 61 82
0 0 0 0 0 0 0 0 0 0 0 0 0 0 0 4 5 4 2 2 0 0 1 0 0 0 1 6 4 24 27 32 15 24 33 16 9 6 61 55 69 45
0 0 0 0 0 0 0 0 0 0 0 0 0 0 4 6 5 6 4 3 5 2 0 0 0 2 6 6 8 9 47 79 63 42 32 28 22 5 27 39 2 7

ECMWFNIL_con_mucape_105.txt.gz
CAPE
185 164 163 170 142 94 67 76 83 90 85 0 0 0 84 0 0 0 0 294 330 376 550 711 762 766 758 723 657 576 528 478 437 416 384 324 278 284 334 325 290 300
0 0 0 0 0 0 0 0 0 0 0 0 0 0 0 0 0 0 0 0 0 5 12 15 208 556 666 706 672 626 594 550 524 426 357 296 279 304 310 295 258 263
0 0 0 0 0 0 0 0 0 0 0 0 0 0 0 0 0 0 0 0 0 0 0 0 0 199 563 593 573 554 523 527 493 503 488 405 308 279 286 250 278 256
0 0 0 0 0 0 0 0 0 0 0 0 0 0 0 0 0 0 0 0 0 0 0 0 1 12 24 408 398 446 517 553 526 474 472 430 377 342 288 235 253 262
0 0 0 0 0 0 0 0 0 0 0 0 0 0 0 0 0 0 0 0 0 0 0 0 0 0 0 234 293 367 461 541 543 519 482 416 339 261 228 217 232 240
0 0 0 0 0 0 0 0 0 0 0 0 0 0 0 0 0 0 0 0 0 0 0 2 6 4 4 0 42 258 369 430 469 468 404 331 279 250 251 277 292 287
0 0 0 0 0 0 0 0 0 0 0 0 0 0 0 0 0 0 0 0 0 0 4 8 6 4 5 13 52 155 260 353 401 410 430 411 350 327 293 287 301 304
0 0 0 0 0 0 0 0 0 0 0 0 0 0 0 0 2 0 0 0 0 2 5 8 8 7 7 4 45 121 230 277 303 300 299 298 313 343 336 335 346 369
0 0 0 0 0 0 0 0 2 2 3 0 0 0 0 1 1 0 0 0 0 2 4 7 8 8 6 4 10 78 175 222 217 223 261 282 295 378 417 418 455 481
0 0 0 0 0 0 1 2 2 2 3 2 0 0 0 0 1 0 0 0 0 0 1 2 6 7 7 9 9 12 55 93 106 93 216 271 305 362 482 535 506 502
0 0 0 0 0 0 0 1 0 0 1 1 0 0 0 0 0 0 0 0 0 0 0 0 0 1 5 11 12 11 12 23 24 2 2 103 331 437 462 590 615 610
0 0 0 0 0 0 0 1 1 1 1 1 0 0 0 0 0 0 1 0 0 0 0 0 0 0 2 2 5 8 6 2 2 2 3 5 65 355 467 524 550 543
0 2 2 0 0 0 0 0 0 0 0 0 0 0 0 1 0 0 0 0 0 0 0 0 0 0 1 2 0 1 1 0 0 0 1 2 6 137 335 414 472 484
0 0 0 0 0 0 0 0 0 0 0 0 1 1 1 0 0 0 0 0 1 1 1 1 0 0 0 2 2 0 0 0 0 0 1 1 2 4 206 272 307 343
0 0 0 0 0 0 0 0 0 0 0 0 1 1 1 0 1 1 0 0 0 1 1 0 1 1 2 4 1 0 1 0 0 0 1 1 1 2 65 195 229 263
0 0 0 0 0 0 0 0 0 0 0 0 0 1 0 1 0 0 1 1 1 1 1 1 2 2 4 0 0 2 0 0 1 1 0 1 1 1 13 124 142 148
0 0 0 0 0 0 0 0 0 0 0 0 0 1 0 0 0 0 0 1 1 0 1 1 2 4 0 0 0 0 0 0 0 0 0 0 9 68 84 133 119 74
0 0 0 0 0 0 0 0 0 0 0 0 0 0 0 0 0 0 0 0 1 2 1 1 2 1 3 0 0 0 0 0 0 0 26 59 32 63 79 80 37 15
0 0 0 0 0 0 0 0 0 0 0 0 0 1 0 0 0 0 0 0 1 1 1 1 1 0 1 1 0 1 0 0 1 25 77 75 48 46 43 11 7 2
0 0 0 0 0 0 0 0 0 0 0 0 0 0 0 0 0 0 0 1 1 0 0 1 0 0 0 0 0 17 10 5 3 7 84 106 7 1 1 2 3 1
0 0 0 0 0 0 0 0 0 0 0 0 0 0 0 0 0 0 0 1 0 0 0 0 0 0 0 0 0 0 0 4 20 142 94 18 55 87 10 13 82 66
0 0 0 0 0 0 0 0 0 0 0 0 0 0 0 0 0 0 0 0 0 0 0 0 0 1 0 0 0 0 0 54 87 116 81 53 21 52 37 4 0 0
0 0 0 0 0 0 0 0 0 0 0 0 0 0 0 0 0 0 0 0 0 0 0 0 0 0 0 0 0 0 0 2 6 58 19 25 18 25 3 0 9 5
0 0 0 0 0 0 0 0 0 0 0 0 0 0 0 0 0 1 1 0 0 0 0 0 0 0 0 0 0 0 0 0 1 20 20 6 1 0 1 0 1 1
0 0 0 0 0 0 0 0 0 0 0 0 0 0 0 0 0 0 0 2 3 1 0 0 0 0 0 0 0 4 5 11 11 3 4 3 2 7 5 1 0 0
0 0 0 0 0 0 0 0 0 0 0 0 0 0 0 0 0 0 0 0 0 0 0 0 0 0 0 0 3 1 7 9 5 6 12 15 12 11 9 6 3 0

ECMWFNIL_con_mucape_108.txt.gz
CAPE
0 19 396 320 0 0 0 0 0 0 0 0 0 0 1 2 1 1 1 1 1 0 0 1 1 1 127 282 380 444 467 473 487 509 527 497 456 432 386 331 274 248
421 367 0 0 0 0 0 0 0 0 0 0 0 0 0 0 0 0 1 0 1 0 0 1 1 1 1 148 292 303 268 315 371 427 464 483 456 342 284 256 253 248
0 0 0 0 0 0 0 0 0 0 0 0 0 0 0 0 0 0 0 2 2 1 1 0 1 1 2 8 49 104 191 276 286 359 451 513 475 331 331 283 290 277
0 0 0 0 0 0 0 0 0 0 0 0 0 0 0 0 0 0 0 1 1 1 1 0 2 6 4 4 4 26 83 169 250 285 329 388 425 395 368 242 206 177
0 0 0 0 0 0 0 0 0 0 0 0 0 0 0 0 0 1 0 0 0 0 0 4 11 10 7 4 5 5 23 64 153 244 286 334 347 385 350 227 202 205
0 0 0 0 0 0 0 0 0 0 0 0 0 0 0 0 2 1 0 0 0 0 3 2 4 6 10 9 13 16 19 30 99 172 209 279 324 304 313 332 280 290
0 0 0 0 0 0 0 0 0 0 2 2 1 0 0 0 1 1 0 1 1 2 1 1 2 3 4 7 5 6 6 4 6 21 95 240 300 310 307 309 294 307
0 0 0 0 0 0 0 0 0 3 3 2 1 1 2 1 1 1 1 1 1 0 0 0 0 0 1 5 4 2 3 4 3 3 31 113 161 300 330 304 279 297
0 0 0 0 0 0 0 0 0 1 2 1 0 0 0 0 1 0 0 0 0 0 0 0 0 0 1 1 3 2 1 1 3 3 3 4 4 4 80 191 221 262
0 0 0 0 0 0 0 0 0 0 0 0 0 1 0 1 1 0 0 0 0 0 0 0 0 0 0 1 1 2 0 0 0 2 6 8 6 4 3 10 72 133
0 0 0 0 0 0 0 0 0 0 0 1 1 0 0 1 0 1 0 1 1 0 0 0 0 0 0 0 1 2 2 0 0 0 0 0 1 4 3 4 11 75
0 0 0 0 0 0 0 0 0 0 1 1 1 0 0 0 2 2 1 1 2 1 0 0 0 1 1 0 1 2 2 1 1 1 1 1 1 1 1 2 5 4
0 0 0 0 0 0 0 0 0 0 1 1 1 0 1 1 2 3 1 2 3 2 2 1 3 3 2 1 1 0 1 0 1 1 1 1 2 2 1 2 12 50
0 0 0 0 0 0 0 0 0 1 1 0 1 1 1 1 1 2 2 3 1 4 4 4 3 2 3 2 1 1 0 0 0 0 1 1 1 1 1 1 2 26
0 0 0 0 0 0 0 0 0 0 1 0 0 1 2 1 3 2 2 3 4 4 4 3 2 2 2 2 2 2 0 0 0 0 0 1 1 1 1 2 5 17
0 0 0 0 0 0 0 0 0 0 0 0 1 2 1 2 3 2 3 2 3 4 3 3 2 2 3 2 4 2 1 1 0 0 1 3 2 2 4 9 13 21
0 0 0 0 0 0 0 0 0 0 0 0 0 1 1 2 2 2 2 2 2 2 3 2 2 2 0 0 0 0 4 4 4 1 2 4 5 6 5 6 16 11
0 0 0 0 0 0 0 0 0 0 0 1 1 0 1 1 1 1 2 1 1 1 1 1 2 2 1 1 1 0 3 4 5 5 16 10 7 26 52 24 4 6
0 0 0 0 0 0 0 0 0 0 0 0 1 0 1 0 1 2 1 1 0 0 1 1 1 1 1 1 0 0 0 2 6 34 104 109 90 72 56 63 4 3
0 0 0 0 0 0 0 0 0 0 0 0 0 1 1 0 1 0 0 0 0 0 0 0 0 0 2 2 2 1 0 1 3 14 44 59 67 43 14 8 7 1
0 0 0 0 0 0 0 0 0 0 0 0 0 0 0 0 0 0 0 0 0 0 0 0 0 1 0 0 0 0 0 0 2 8 14 16 10 9 26 23 4 2
0 0 0 0 0 0 0 0 0 0 0 0 0 0 0 0 0 0 0 0 0 0 0 0 0 0 0 0 0 0 0 1 2 2 1 1 5 11 10 5 9 6
0 0 0 0 0 0 0 0 0 0 0 0 0 0 0 0 0 0 0 0 0 0 0 0 0 0 0 0 0 1 3 2 2 1 3 1 0 0 4 5 3 2
0 0 0 0 0 0 0 0 0 0 0 0 0 0 0 0 0 0 0 0 0 0 0 0 0 0 0 0 0 0 0 4 7 10 10 8 12 5 1 4 14 11
0 0 0 0 0 0 0 0 0 0 0 0 0 0 0 0 0 1 0 0 0 0 0 0 0 3 1 0 0 0 3 6 10 12 18 15 16 17 11 12 17 12
0 0 0 0 0 0 0 0 0 0 0 0 0 0 0 0 3 1 1 1 2 0 2 0 0 0 0 0 1 1 2 3 6 13 19 19 22 18 15 8 11 10

ECMWFNIL_con_mucape_111.txt.gz
CAPE
0 0 0 0 19 0 0 0 0 0 0 0 0 0 0 0 0 1 1 1 1 3 3 3 4 3 8 67 285 331 396 563 535 614 649 664 593 591 654 514 612 447
0 0 251 427 401 0 0 0 0 0 0 0 0 0 0 0 1 1 2 1 1 1 2 4 7 9 12 27 59 127 223 354 377 434 379 425 551 658 615 469 406 408
359 428 450 234 0 0 0 0 0 0 0 0 0 0 1 1 1 1 1 1 1 1 2 4 9 13 12 12 11 23 68 132 221 263 403 346 458 388 576 663 600 466
444 369 81 0 0 0 0 0 0 0 0 0 1 1 1 2 2 1 1 1 1 1 4 5 5 4 6 10 16 20 33 55 75 87 179 283 352 328 472 475 397 411
398 109 0 0 0 0 0 0 0 0 0 1 2 2 2 2 2 1 1 1 2 3 2 1 2 2 2 2 6 20 19 18 18 27 47 17 85 282 405 388 528 526
94 0 0 0 0 0 0 0 0 0 1 1 2 1 1 1 2 1 1 1 1 1 1 1 1 1 1 2 5 7 9 8 8 9 12 15 10 6 82 328 392 385
0 0 0 0 0 0 0 0 1 1 1 1 1 1 1 1 1 1 1 1 1 1 1 1 0 1 1 2 4 4 6 6 6 5 4 4 5 4 4 39 188 264
0 0 0 0 0 0 0 0 1 1 2 2 1 2 2 1 1 2 1 0 0 0 0 0 0 0 0 0 1 2 3 4 2 2 3 3 3 3 2 2 5 6
0 0 0 0 0 1 2 1 1 1 1 1 1 1 2 1 0 0 0 0 1 1 2 2 1 1 1 2 3 3 2 2 3 2 1 2 4 3 2 1 3 3
0 0 0 0 1 2 1 2 2 1 2 1 2 2 0 0 1 0 1 1 1 3 4 3 2 3 3 3 3 3 3 2 1 1 2 2 2 4 4 3 3 3
0 0 1 2 2 2 2 2 2 1 1 2 2 0 0 1 0 1 3 3 2 3 3 2 2 2 2 3 3 4 4 2 1 0 1 0 1 2 5 3 2 2
1 1 1 1 1 1 2 2 1 1 2 2 0 0 0 0 1 3 3 3 4 4 3 2 1 1 1 1 3 2 3 2 0 0 0 0 0 0 0 2 2 3
0 0 1 1 1 1 1 1 1 2 2 0 0 0 0 1 2 2 2 4 4 3 2 2 0 1 1 1 0 0 0 2 3 3 0 1 2 2 2 2 3 11
0 0 0 0 1 1 1 2 2 2 0 0 0 1 1 1 2 3 2 2 2 3 3 3 2 0 0 0 0 0 0 1 4 7 8 7 6 4 3 6 8 12
0 0 0 0 1 1 1 2 2 1 1 1 1 2 2 3 3 2 1 1 2 1 2 1 0 1 2 1 1 0 0 0 1 6 7 6 6 8 10 8 8 7
0 0 0 0 1 1 0 1 0 0 1 2 2 3 4 3 1 1 1 0 0 0 0 0 1 2 1 0 0 0 0 2 3 3 6 6 6 13 14 12 7 4
0 0 0 0 1 1 0 0 0 0 1 2 2 2 2 1 0 0 0 0 0 0 0 0 1 1 0 0 0 0 0 2 2 2 2 5 18 12 3 2 10 14
0 0 1 0 1 1 0 0 0 0 0 1 1 0 0 0 0 0 0 0 0 0 0 0 0 0 0 0 0 0 0 1 2 2 1 2 8 12 11 6 11 14
0 0 0 0 1 0 0 0 0 0 0 0 0 0 0 0 0 0 0 0 0 0 1 0 0 0 0 0 0 0 0 1 2 2 2 1 1 2 2 7 2 6
0 0 0 0 0 0 0 0 0 0 0 0 0 0 0 0 0 0 0 0 0 0 0 0 0 0 0 0 0 0 0 0 2 2 2 1 2 1 1 2 2 2
0 0 0 0 0 0 0 0 0 0 0 0 0 0 1 0 0 0 0 1 1 0 0 0 0 0 0 0 0 0 0 0 1 1 4 4 3 2 4 5 2 1
0 0 0 0 0 0 0 0 0 0 0 0 0 0 0 0 0 0 0 0 0 0 0 0 0 0 0 0 0 0 0 0 0 3 4 6 11 12 15 18 10 11
0 0 0 0 0 0 0 0 0 0 0 0 0 0 0 0 0 0 0 0 0 0 1 0 0 0 0 0 0 0 0 0 0 2 4 10 12 18 19 11 13 14
1 0 0 0 0 0 0 0 0 0 0 0 0 0 0 0 0 0 0 0 0 0 0 0 0 0 0 0 0 0 0 0 0 0 2 7 12 17 15 7 3 7
0 0 0 0 0 0 0 0 0 0 0 0 0 0 0 0 0 0 0 0 0 0 0 0 0 0 0 0 0 0 0 0 0 0 1 10 16 24 15 5 1 0
0 0 0 0 0 0 0 0 0 0 0 0 0 0 0 0 0 0 0 0 0 0 0 0 0 0 0 0 0 0 0 0 0 0 1 7 11 17 32 18 3 2

ECMWFNIL_con_mucape_114.txt.gz
CAPE
279 235 143 46 11 2 7 6 5 4 4 2 2 0 0 4 3 4 4 4 4 4 4 6 4 7 8 41 175 263 373 470 527 581 579 620 728 748 811 902 909 756
5 4 3 5 6 5 6 7 6 4 3 5 2 0 0 2 4 3 4 4 3 4 5 6 7 8 8 8 13 50 123 201 292 339 445 474 521 578 629 716 808 745
278 59 6 5 5 7 7 5 6 5 3 2 4 2 2 4 4 3 4 4 4 5 5 5 5 5 8 8 8 7 11 34 53 82 81 93 125 206 411 584 684 716
367 268 367 386 355 132 4 4 3 1 1 0 3 3 2 3 4 3 3 2 2 2 4 3 2 4 4 5 7 7 9 10 7 7 8 10 18 34 50 98 310 625
479 494 469 402 108 3 3 2 2 2 2 2 2 2 1 2 2 2 1 2 3 3 3 2 3 4 4 3 3 4 6 9 9 8 9 10 8 7 7 11 48 199
631 586 472 277 32 0 0 2 2 1 1 2 3 4 3 3 1 1 2 3 2 2 3 3 3 2 3 3 4 5 5 4 5 5 5 4 6 8 9 10 16 43
660 515 314 20 2 2 2 2 3 1 3 3 2 2 4 2 3 3 2 3 2 2 2 3 2 2 3 4 3 4 3 2 1 1 2 2 4 6 7 10 12 12
536 338 4 3 4 3 1 1 3 3 4 2 5 2 4 2 2 4 2 2 2 2 2 0 0 1 2 1 0 1 1 1 1 0 0 1 3 2 3 7 10 9
329 2 3 4 4 2 2 2 3 3 2 4 3 3 4 3 3 2 2 2 2 2 2 1 0 1 1 0 1 1 1 1 2 1 1 0 1 2 1 1 4 5
159 2 4 3 3 3 3 3 2 3 2 2 4 3 3 3 4 3 2 2 2 2 2 1 1 2 0 0 0 0 0 0 0 1 1 1 1 1 1 2 2 4
3 2 3 3 4 4 4 3 3 4 4 2 4 3 3 3 4 4 3 2 3 1 1 1 1 0 0 0 0 0 0 1 0 0 1 2 4 5 3 3 5 9
2 2 2 3 3 4 4 4 4 4 3 4 2 2 4 4 4 3 3 2 2 1 1 0 0 0 0 0 0 0 1 0 1 1 1 3 8 9 6 6 3 4
2 2 3 4 4 4 4 4 4 4 2 3 4 4 4 5 3 2 2 0 1 1 0 0 0 0 0 0 0 0 1 1 1 1 0 1 1 3 4 4 4 4
2 4 3 4 4 3 3 4 3 4 4 4 4 4 4 2 2 2 2 1 2 0 0 1 1 1 1 1 1 1 1 2 1 2 1 1 1 6 8 4 1 2
2 3 3 4 2 4 4 3 4 4 3 2 3 3 3 2 2 2 2 1 0 1 0 0 1 1 3 0 2 2 3 2 3 2 2 1 1 0 0 0 1 1
1 3 3 2 3 3 3 3 3 3 3 3 2 2 2 2 2 2 0 0 0 0 0 1 0 1 0 0 0 0 0 4 4 3 3 2 1 1 1 2 2 1
1 2 3 2 2 2 3 1 2 4 3 4 4 3 3 4 2 2 2 2 1 1 0 1 1 0 0 0 0 0 0 5 3 4 3 3 4 2 2 1 1 0
0 2 2 2 2 2 3 2 2 2 2 3 4 4 4 3 4 2 2 4 4 2 1 0 0 0 0 0 0 0 0 3 4 4 2 2 2 2 1 2 1 2
0 1 1 2 3 2 2 3 3 2 3 3 4 4 4 4 4 4 2 4 6 4 1 0 0 0 0 0 0 0 0 0 4 4 2 4 3 2 1 0 0 1
0 0 2 3 3 2 2 2 2 2 3 4 3 2 5 4 4 4 3 3 4 4 2 0 0 0 0 0 0 0 0 0 5 6 5 4 3 2 2 2 2 0
1 2 2 2 2 2 2 3 2 2 2 2 2 2 1 1 2 3 2 4 4 5 4 0 0 0 0 0 0 0 0 0 6 5 3 4 3 3 4 3 1 0
1 1 0 1 0 0 2 2 4 2 2 1 0 0 0 0 0 0 0 2 3 4 4 0 0 0 0 0 0 0 0 5 4 4 4 3 3 4 4 3 0 0
0 1 3 2 1 1 0 3 3 3 4 0 0 0 0 0 0 0 0 0 0 2 4 1 0 0 0 0 0 0 0 7 6 4 5 6 3 4 3 4 2 0
0 0 1 2 1 0 2 3 2 2 0 0 0 0 0 0 0 0 0 0 0 0 0 0 0 0 0 0 0 0 0 8 5 7 10 7 8 7 4 4 3 0
0 0 0 0 0 2 4 2 1 0 0 0 0 0 0 0 0 0 0 0 0 0 0 0 0 0 0 0 0 0 0 4 2 8 8 8 7 6 6 3 4 1
0 1 1 0 0 4 0 0 0 0 0 0 0 0 0 0 0 0 0 0 0 0 0 0 0 0 0 0 0 0 0 0 2 6 4 8 6 4 0 6 6 3

ECMWFNIL_con_mucape_117.txt.gz
CAPE
441 370 268 243 143 51 78 56 10 18 12 19 18 6 1 6 2 6 2 3 4 4 6 6 6 6 4 12 82 138 173 238 334 364 439 527 583 714 807 754 897 1047
45 44 16 5 2 4 5 9 7 3 4 3 4 3 3 3 4 2 6 2 3 5 6 6 6 4 4 3 6 5 14 107 176 180 220 227 295 285 299 384 533 626
6 17 8 5 6 7 6 6 5 3 2 2 4 5 3 5 4 3 4 2 3 3 4 4 4 3 3 3 5 8 10 7 9 14 7 6 4 12 48 133 235 259
5 7 6 6 8 8 6 5 4 4 5 2 4 3 3 4 3 3 2 4 3 2 4 3 6 4 6 5 6 5 5 5 10 8 8 8 8 7 6 7 8 27
80 5 6 5 5 4 4 6 4 4 5 3 4 4 1 2 3 2 3 4 3 2 3 3 4 3 2 2 2 2 2 4 6 6 7 7 8 9 7 8 9 8
260 263 293 316 348 264 5 4 2 2 4 3 3 2 2 2 2 2 1 2 4 3 1 3 1 1 2 3 3 2 3 4 5 6 4 4 5 6 6 7 8 8
437 448 446 437 425 360 26 6 5 4 4 4 1 3 2 2 3 2 2 3 3 1 2 2 2 3 4 4 4 4 5 4 4 4 3 3 4 3 4 5 5 5
453 478 500 490 419 242 6 4 6 4 4 5 4 3 5 3 3 4 2 1 1 1 1 0 0 0 1 2 3 2 4 3 3 4 4 2 2 1 1 2 4 6
453 473 495 460 276 5 5 4 3 4 3 4 4 5 4 5 5 4 3 1 1 2 0 0 0 0 1 3 3 2 2 3 3 3 3 4 2 2 2 4 2 1
320 382 402 313 178 6 5 6 5 3 5 3 3 2 2 3 2 1 0 0 0 0 0 0 0 0 0 0 2 3 3 3 3 5 4 3 0 1 2 4 4 6
284 348 315 252 76 5 6 5 5 4 3 3 4 2 2 4 3 2 1 0 1 0 0 0 0 0 0 0 1 3 4 5 5 4 6 5 3 2 3 4 4 5
232 277 264 190 5 4 4 4 3 3 3 5 3 4 4 2 2 2 2 0 0 0 0 0 0 0 0 0 1 2 4 5 7 9 10 7 2 1 0 0 1 2
5 196 215 64 5 5 3 2 3 3 4 3 3 2 4 3 2 2 2 1 0 0 0 0 0 0 0 0 0 0 1 4 7 7 8 7 6 3 6 8 7 7
39 3 3 4 4 4 4 5 4 5 4 4 3 4 3 2 2 2 2 0 0 0 0 0 0 0 0 0 0 1 0 3 7 9 6 7 8 5 8 8 7 7
30 28 29 149 20 3 3 3 5 4 4 3 3 3 4 3 4 2 3 1 0 0 0 0 0 1 0 0 0 0 0 3 7 5 5 7 4 8 8 6 8 9
3 4 4 4 2 3 4 3 3 5 5 4 3 3 3 5 3 3 1 1 0 0 0 0 0 0 0 0 0 0 0 1 7 5 6 7 7 8 7 5 6 7
1 2 3 3 2 3 8 4 3 6 4 6 5 4 4 3 5 4 5 3 1 0 0 0 0 0 0 0 0 0 0 2 8 8 8 8 6 6 6 3 4 5
0 1 1 2 5 2 2 4 3 3 3 4 4 4 4 5 5 4 6 6 4 1 0 0 0 0 0 0 0 0 0 0 6 5 8 8 6 6 3 1 1 0
1 2 1 1 1 3 3 5 4 5 7 5 5 6 4 5 5 5 6 6 4 1 0 0 0 0 0 0 0 0 0 0 8 6 5 7 7 6 6 5 2 2
1 2 2 1 2 2 3 4 4 4 4 4 5 7 4 4 6 6 5 5 3 2 0 0 0 0 0 0 0 0 0 0 11 7 10 8 6 8 9 5 1 1
1 0 1 1 3 2 2 0 2 4 4 3 4 4 1 1 1 3 5 3 2 0 0 0 0 0 0 0 0 0 0 0 10 7 8 7 8 11 9 8 1 0
2 2 3 3 5 2 0 2 3 3 2 1 0 0 0 0 0 0 0 0 0 0 0 0 0 0 0 0 0 0 0 4 5 10 8 9 8 7 8 8 0 0
0 1 2 3 4 3 2 3 4 2 0 0 0 0 0 0 0 0 0 0 0 0 0 0 0 0 0 0 0 0 0 3 4 2 6 7 6 5 5 3 0 0
0 0 0 1 0 2 2 4 1 0 0 0 0 0 0 0 0 0 0 0 0 0 0 0 0 0 0 0 0 0 0 1 0 0 0 0 2 3 2 1 1 0
0 0 0 1 1 2 2 0 0 0 0 0 0 0 0 0 0 0 0 0 0 0 0 0 0 0 0 0 0 0 0 0 0 0 0 0 0 0 0 0 0 0
0 0 0 0 0 0 0 0 0 0 0 0 0 0 0 0 0 0 0 0 0 0 0 0 0 0 0 0 0 0 0 0 0 0 0 0 0 0 0 0 0 0

ECMWFNIL_con_mucape_123.txt.gz
CAPE
685 638 638 642 634 613 595 580 518 471 404 276 0 0 0 0 0 0 0 0 0 0 0 0 0 0 0 0 0 0 0 0 0 0 0 0 0 0 0 0 0 0
675 648 638 604 584 616 579 538 517 424 367 97 0 0 0 0 0 0 0 0 0 0 0 0 0 0 0 0 0 0 0 0 0 0 0 2 4 3 5 6 7 6
682 654 551 559 583 532 530 488 423 346 200 0 0 0 0 0 0 0 1 0 0 0 0 0 0 0 0 0 0 0 0 0 0 0 6 9 10 8 13 13 10 10
697 721 650 572 518 465 424 370 213 0 0 0 0 0 0 0 0 0 3 5 0 0 0 0 0 0 0 0 1 1 0 0 4 8 8 8 11 13 9 4 2 8
663 614 552 483 406 337 247 141 0 0 0 0 0 0 0 0 2 2 4 0 0 0 0 1 0 0 0 0 0 2 6 9 8 10 11 12 10 6 1 1 2 4
434 295 41 0 0 0 0 0 0 0 0 0 0 1 1 0 0 1 0 0 0 0 0 0 0 0 0 1 5 9 6 8 7 7 10 11 7 1 0 0 2 2
26 0 0 0 0 0 0 0 0 0 0 0 0 1 1 1 1 0 0 1 0 0 0 0 0 0 0 1 2 5 10 12 10 11 12 13 8 4 4 4 8 9
0 0 0 0 0 0 0 0 0 9 0 0 0 0 0 0 0 0 0 0 0 0 0 0 0 0 0 0 3 3 7 12 11 11 11 7 11 10 12 16 23 9
0 0 0 84 84 0 0 71 182 84 0 0 0 0 0 0 1 0 0 0 0 0 0 0 0 0 0 0 2 4 7 10 7 5 5 5 12 9 11 19 25 16
0 56 153 170 143 130 156 203 155 144 0 1 0 0 0 0 0 0 0 0 0 0 0 0 0 0 0 1 2 2 5 8 6 6 4 4 5 2 3 9 22 1
0 96 64 122 170 180 167 73 0 1 0 0 0 0 0 0 0 0 0 0 0 0 0 0 0 0 0 0 0 0 1 6 8 7 1 1 0 1 3 2 2 1
0 0 0 0 2 2 2 0 0 0 0 0 0 0 0 0 0 0 0 0 0 0 0 0 0 0 0 0 0 0 0 1 8 5 1 0 0 0 1 1 0 0
0 2 4 5 4 2 0 0 0 0 0 0 0 0 0 0 0 0 0 0 0 0 0 0 0 0 0 0 0 0 0 2 2 1 0 0 0 0 0 0 0 0
7 9 6 4 5 2 1 1 0 0 0 0 0 0 0 0 0 0 0 0 0 0 0 0 0 0 0 0 0 0 0 0 0 0 0 0 0 0 0 0 0 0
6 6 5 9 4 2 1 0 0 0 0 0 0 0 0 0 0 0 0 0 0 0 0 0 0 0 0 0 0 0 0 0 0 0 0 0 0 0 0 0 0 0
4 5 6 6 2 1 0 0 0 0 0 0 0 0 0 0 0 0 0 0 0 0 0 0 0 0 0 0 0 0 0 0 0 0 0 0 0 0 0 0 0 0
8 8 4 2 3 2 1 0 0 0 0 0 0 0 0 0 0 0 0 0 0 0 0 0 0 0 0 0 0 0 0 0 0 0 0 0 0 0 0 0 0 0
6 3 2 3 3 1 0 0 0 0 0 0 0 0 0 0 0 0 0 0 0 0 0 0 0 0 0 0 0 0 0 0 0 0 0 0 0 0 0 0 0 0
0 0 0 0 0 0 0 0 0 0 0 0 0 0 0 0 0 0 0 0 0 0 0 0 0 0 0 0 0 0 0 0 0 0 0 0 0 0 0 0 0 0
0 0 0 0 0 0 0 0 0 0 0 0 0 0 0 0 0 0 0 0 0 0 0 0 0 0 0 0 0 0 0 0 0 0 0 0 0 0 0 0 0 0
0 0 0 0 0 0 0 1 2 0 0 0 0 0 0 0 0 0 0 0 0 0 0 0 0 0 0 0 0 0 0 0 0 0 0 0 0 0 0 0 0 0
0 0 0 0 0 12 14 3 0 0 0 0 0 0 0 0 0 0 0 0 0 0 0 0 0 0 0 0 0 0 0 0 0 0 0 0 0 0 0 0 0 0
0 0 2 27 25 0 0 0 0 0 0 0 0 0 0 0 0 0 0 0 0 0 0 0 0 0 0 0 0 0 0 0 0 0 0 0 0 0 0 0 0 0
12 32 29 0 0 0 0 0 0 0 0 0 0 0 0 0 0 0 0 0 0 0 0 0 0 0 0 0 0 0 0 0 0 0 0 0 0 0 0 0 0 0
0 0 0 0 0 0 0 0 0 0 0 0 0 0 0 0 0 0 0 0 0 0 0 0 0 0 0 0 0 0 0 0 0 0 0 0 0 0 0 0 0 0
0 0 0 0 0 0 0 0 0 0 0 0 0 0 0 0 0 0 0 0 0 0 0 0 0 0 0 0 0 0 0 0 0 0 0 0 0 0 0 0 0 0

ECMWFNIL_con_mucape_129.txt.gz
CAPE
1019 995 1035 938 903 949 892 759 725 757 757 698 571 555 512 520 528 533 472 192 0 0 0 0 0 0 0 0 0 0 0 0 0 0 0 0 0 0 0 0 0 0
1103 1083 1010 914 836 846 900 822 778 721 687 578 512 472 480 489 540 478 276 0 0 0 0 0 0 0 0 0 0 0 0 0 0 0 0 0 0 0 0 0 0 0
1100 1032 918 851 843 833 878 794 718 682 616 584 545 535 538 541 497 382 205 0 0 0 0 0 0 0 0 0 0 0 0 0 0 0 0 0 0 0 0 0 0 0
1039 938 868 850 888 909 838 750 695 587 526 481 490 521 512 492 426 242 110 0 0 0 0 0 0 0 0 0 0 0 0 0 0 0 0 0 0 0 0 0 0 0
955 800 751 866 890 805 773 716 609 466 418 401 431 469 517 493 415 170 0 0 0 0 0 0 0 0 0 0 0 0 0 0 0 0 0 0 0 0 0 0 0 0
911 656 563 666 788 814 739 571 507 431 408 412 408 447 506 516 444 140 0 0 0 0 0 0 0 0 0 0 0 0 0 0 0 0 0 0 0 0 0 0 0 0
875 792 717 684 759 781 733 618 503 419 414 410 381 417 481 421 313 0 0 0 0 0 0 0 0 35 42 69 23 0 0 0 0 0 0 0 0 0 0 0 0 0
915 816 789 752 719 656 647 566 444 456 428 407 416 420 425 283 143 0 111 0 0 0 0 0 94 132 105 76 5 0 0 0 0 0 0 0 0 0 0 0 0 0
843 819 782 723 683 620 559 456 437 462 416 427 428 385 224 58 0 119 124 0 0 0 103 121 106 108 77 7 0 0 0 0 0 0 0 0 0 0 0 0 0 0
823 739 646 577 522 452 450 428 450 474 466 418 290 118 0 0 6 143 99 82 88 88 123 123 98 71 9 0 0 0 0 0 0 0 0 0 0 0 0 0 0 0
695 587 516 456 417 417 454 493 502 477 371 166 74 0 0 40 125 104 109 88 106 102 135 116 83 55 28 17 0 0 0 0 0 0 0 0 0 0 0 0 0 0
458 417 378 376 390 429 458 462 382 218 102 83 74 67 72 103 111 126 101 92 93 102 93 74 60 76 70 28 0 0 0 0 0 0 0 0 0 0 0 0 0 0
335 377 428 461 428 368 257 155 108 120 148 123 86 81 121 121 124 100 89 27 0 0 31 91 90 68 52 0 0 0 0 0 0 0 0 0 0 0 0 0 0 0
450 500 430 326 178 0 64 125 185 194 154 112 93 94 84 88 71 0 0 0 0 0 42 7 0 4 0 0 0 0 0 0 0 0 0 0 0 0 0 0 0 0
569 342 42 0 0 0 92 169 140 92 73 68 61 62 64 41 0 0 0 0 0 0 0 0 1 0 0 0 0 0 0 0 0 0 0 0 0 0 0 0 0 0
293 0 0 0 0 0 43 0 0 1 0 0 0 0 0 42 0 0 0 0 0 0 0 0 0 0 0 0 0 0 0 0 0 0 0 0 0 0 0 0 0 0
261 0 0 0 0 0 0 0 1 1 0 0 0 0 0 0 0 0 0 0 0 0 0 0 0 0 0 0 0 0 0 0 0 0 0 0 0 0 0 0 0 0
119 0 0 0 0 0 0 0 0 0 0 0 0 0 0 0 0 0 0 0 0 0 0 0 0 0 0 0 0 0 0 0 0 0 0 0 0 0 0 0 0 0
1 0 0 0 0 0 0 0 0 0 0 0 0 0 0 0 0 0 0 0 0 0 0 0 0 0 0 0 0 0 0 0 0 0 0 0 0 0 0 0 0 0
54 9 0 0 0 0 0 0 0 0 0 0 0 0 0 2 2 0 0 0 0 0 0 0 0 0 0 0 0 0 0 0 0 0 0 0 0 0 0 0 0 0
54 28 2 0 0 0 0 0 0 0 0 0 0 3 7 2 0 0 0 0 0 0 0 0 0 0 0 0 0 0 0 0 0 0 0 0 0 0 0 0 0 0
41 23 6 1 0 0 0 0 0 0 0 5 13 6 0 0 0 0 0 0 0 0 0 0 0 0 0 0 0 0 0 0 0 0 0 0 0 0 0 0 0 0
54 35 16 1 4 2 0 0 0 6 29 22 8 0 0 0 0 0 0 0 0 0 0 0 0 0 0 0 0 0 0 0 0 0 0 0 0 0 0 0 0 0
40 30 21 6 0 0 0 1 30 56 13 2 0 0 0 0 0 0 0 0 0 0 0 0 0 0 0 0 0 0 0 0 0 0 0 0 0 0 0 0 0 0
53 49 14 0 0 4 54 91 80 8 0 0 0 0 0 0 0 0 0 0 0 0 0 0 0 0 0 0 0 0 0 0 0 0 0 0 0 0 0 0 0 0
26 2 2 40 96 104 59 18 0 0 0 0 0 0 0 0 0 0 0 0 0 0 0 0 0 0 0 0 0 0 0 0 0 0 0 0 0 0 0 0 0 0

ECMWFNIL_con_mucape_132.txt.gz
CAPE
902 986 1021 1048 1121 954 991 1074 1035 922 800 690 547 411 427 479 419 328 387 394 413 354 119 0 0 0 0 0 0 0 0 0 0 0 0 0 0 0 0 0 0 0
929 987 1009 1021 952 986 1056 1037 944 814 698 584 505 499 486 436 374 385 396 446 402 231 0 0 0 0 0 0 0 0 0 0 0 0 0 0 0 0 0 0 0 0
1000 1019 1015 967 902 971 1027 961 862 727 674 614 588 512 442 426 458 466 459 416 254 0 0 0 0 0 0 0 0 0 0 0 0 0 0 0 0 0 0 0 0 0
1056 1034 992 930 890 935 972 935 796 722 641 652 611 518 448 408 332 344 421 429 284 0 0 0 0 0 0 0 0 0 0 0 0 0 0 0 0 0 0 0 0 0
1040 978 992 983 961 932 916 887 848 746 721 630 559 450 341 275 286 328 349 376 300 0 0 0 0 0 0 0 0 0 0 0 0 0 0 0 0 0 0 0 0 0
1015 1035 1016 1019 984 935 908 900 855 809 680 602 512 360 293 254 273 337 362 224 205 0 0 0 0 0 0 0 0 0 0 0 0 0 0 0 0 0 0 0 0 0
1012 999 1043 975 926 888 913 870 823 747 642 526 429 358 308 253 216 154 130 3 68 0 0 0 0 0 0 0 0 0 0 0 0 0 0 0 0 0 0 0 0 0
971 1003 995 890 912 932 889 759 742 690 572 461 364 313 242 224 233 169 58 0 0 0 0 0 0 0 0 0 0 0 0 0 0 0 0 0 0 0 0 0 0 0
972 862 773 740 884 985 721 650 620 540 462 393 338 334 316 256 180 37 0 0 0 0 0 0 0 0 0 0 0 0 0 0 0 0 0 0 0 0 0 0 0 0
692 782 629 644 688 602 533 468 489 437 416 377 350 307 291 226 123 0 0 0 0 93 0 0 0 0 57 60 0 0 0 0 0 0 0 0 0 0 0 0 0 0
570 475 687 684 590 556 512 475 475 450 404 343 316 306 256 152 0 0 0 0 40 81 78 0 0 0 22 0 0 0 0 5 15 0 0 0 0 0 0 0 0 0
588 519 554 558 611 646 628 513 374 336 342 344 299 270 121 0 0 0 0 62 0 86 77 76 0 0 0 23 53 41 31 10 0 0 0 0 0 0 0 0 0 0
526 628 650 676 616 468 348 320 310 335 321 296 169 0 0 0 0 42 8 36 0 0 0 0 0 0 0 14 3 17 1 0 0 0 0 0 0 0 0 0 0 0
575 681 722 539 412 356 312 343 339 291 172 88 110 116 86 4 72 0 0 0 0 0 0 0 6 11 7 0 2 0 0 0 0 0 0 0 0 0 0 0 0 0
509 521 478 410 359 371 367 277 175 22 0 66 122 76 0 12 0 0 0 10 0 0 0 0 0 0 0 0 0 0 0 0 0 0 0 0 0 0 0 0 0 0
376 339 170 298 359 307 118 0 0 0 0 0 0 0 0 0 0 0 0 0 0 0 0 0 0 0 0 0 0 0 0 0 0 0 0 0 0 0 0 0 0 0
315 274 196 13 0 0 0 0 0 0 0 0 0 0 0 0 0 0 0 0 0 0 0 0 0 0 0 0 0 0 0 0 0 0 0 0 0 0 0 0 0 0
118 0 0 234 2 16 1 8 8 0 0 0 0 0 0 0 0 0 0 0 0 0 0 0 0 0 0 0 0 0 0 0 0 0 0 0 0 0 0 0 0 0
12 48 40 37 4 2 0 0 11 1 0 0 0 0 0 0 0 0 0 0 0 0 0 0 0 0 0 0 0 0 0 0 0 0 0 0 0 0 0 0 0 0
260 149 82 73 62 9 0 0 0 0 0 0 0 0 0 0 0 0 0 0 0 0 0 0 0 0 0 0 0 0 0 0 0 0 0 0 0 0 0 0 0 0
222 137 0 0 6 0 0 0 0 0 0 0 0 0 0 0 0 0 0 0 0 0 0 0 0 0 0 0 0 0 0 0 0 0 0 0 0 0 0 0 0 0
91 0 0 40 9 0 0 0 0 0 0 0 0 0 0 0 0 0 0 0 0 0 0 0 0 0 0 0 0 0 0 0 0 0 0 0 0 0 0 0 0 0
164 24 70 18 1 0 0 0 0 0 0 0 0 0 0 0 0 0 0 0 0 0 0 0 0 0 0 0 0 0 0 0 0 0 0 0 0 0 0 0 0 0
43 71 37 0 0 0 0 1 0 0 0 0 0 0 0 0 0 0 0 0 0 0 0 0 0 0 0 0 0 0 0 0 0 0 0 0 0 0 0 0 0 0
57 58 13 8 7 7 3 0 0 0 0 0 8 5 0 0 0 0 0 0 0 0 0 0 0 0 0 0 0 0 0 0 0 0 0 0 0 0 0 0 0 0
85 26 11 11 12 0 0 0 0 2 30 23 3 0 0 0 0 0 0 0 0 0 0 0 0 0 0 0 0 0 0 0 0 0 0 0 0 0 0 0 0 0

ECMWFNIL_con_mucape_135.txt.gz
CAPE
473 481 607 631 731 716 676 618 670 656 581 596 602 419 289 245 292 306 228 258 325 275 0 0 0 0 0 0 0 0 0 0 0 0 0 0 0 0 0 0 0 0
558 454 359 562 644 748 726 691 782 670 587 543 474 346 256 288 230 213 235 300 327 271 0 0 0 0 0 0 0 0 0 0 0 0 0 0 0 0 0 0 0 0
584 581 573 563 659 764 710 675 721 668 550 416 392 316 274 240 218 204 204 245 244 227 0 0 0 1 2 1 0 0 0 0 0 0 0 0 0 0 0 0 0 0
603 488 481 716 890 792 602 686 564 561 423 367 322 302 263 220 180 154 186 244 0 0 0 0 0 1 1 0 0 0 0 0 0 0 0 0 0 0 0 0 0 0
645 596 695 861 784 783 695 675 566 468 383 368 307 330 235 171 83 156 212 234 0 0 0 0 0 0 1 0 0 0 0 0 0 0 0 0 0 0 0 0 0 0
739 788 783 828 799 730 732 574 413 264 392 432 348 317 198 86 73 178 215 0 0 0 0 0 0 0 0 0 0 0 0 0 0 0 0 0 0 0 0 0 0 0
879 901 758 583 680 574 670 490 388 243 261 371 382 212 148 163 0 38 33 0 0 0 0 0 0 0 0 0 0 0 0 0 0 0 0 0 0 0 0 0 0 0
872 915 819 638 443 538 513 524 443 370 369 480 266 140 0 0 130 0 0 0 0 0 0 0 0 0 0 0 0 0 0 0 0 0 0 0 0 11 0 0 0 0
902 828 771 763 635 508 507 372 430 362 467 221 0 7 161 43 54 2 0 0 0 0 0 0 0 0 0 0 0 0 0 0 0 0 0 0 19 1 0 0 0 0
854 855 819 826 691 543 381 379 386 424 246 0 176 191 0 0 0 0 0 0 0 0 0 0 0 0 0 0 0 0 0 0 0 0 0 7 0 0 0 0 0 0
752 890 749 712 629 580 537 424 422 313 240 134 206 0 0 0 0 0 0 0 0 0 0 0 0 0 0 0 0 0 0 0 0 0 0 0 0 0 0 0 0 0
812 921 821 664 549 636 601 411 391 309 240 0 0 0 10 116 0 0 0 0 0 0 0 0 0 0 0 0 0 6 1 0 0 0 0 0 0 0 0 0 0 0
756 829 626 481 468 486 375 292 263 267 158 0 0 0 144 0 0 0 0 0 0 0 0 0 0 0 0 0 0 4 13 3 0 0 0 0 0 0 0 0 0 0
474 653 474 399 392 348 294 328 336 302 0 40 175 147 0 0 0 0 0 0 0 0 0 0 0 0 0 0 0 0 0 0 0 0 0 0 0 0 0 0 0 0
529 493 450 348 399 397 343 331 215 30 53 147 110 0 0 0 0 0 0 0 0 0 0 0 0 0 0 0 0 0 0 0 0 0 0 0 0 0 0 0 0 0
533 491 437 336 460 337 203 110 181 140 133 88 0 0 0 0 0 0 0 0 0 0 0 0 0 0 0 0 0 0 0 0 0 0 0 0 0 0 0 0 0 0
427 431 357 436 360 0 0 194 190 69 0 0 0 0 0 0 0 0 0 0 0 0 0 0 0 0 0 0 0 0 0 0 0 0 0 0 0 0 0 0 0 0
434 380 348 235 0 4 203 162 34 0 0 0 0 0 0 0 0 0 0 0 0 0 0 0 0 0 0 0 0 0 0 0 0 0 0 0 0 0 0 0 0 0
291 87 9 33 19 16 0 0 0 0 0 0 0 0 0 0 0 0 0 0 0 0 0 0 0 0 0 0 0 0 0 0 0 0 0 0 0 0 0 0 0 0
4 54 67 26 0 0 14 16 0 0 0 0 4 5 0 0 0 0 0 0 0 0 0 0 0 0 0 0 0 0 0 0 0 0 0 0 0 0 0 0 0 0
14 4 0 0 0 0 11 31 0 0 0 1 0 0 0 0 0 0 0 0 0 0 0 0 0 0 0 0 0 0 0 0 0 0 0 0 0 0 0 0 0 0
98 86 46 46 0 3 9 3 0 0 0 0 0 0 0 0 0 0 0 0 0 0 0 0 0 0 0 0 0 0 0 0 0 0 0 0 0 0 0 0 0 0
41 26 0 0 0 3 11 2 0 0 0 0 0 0 0 0 0 0 0 0 0 0 0 0 0 0 0 0 0 0 0 0 0 0 0 0 0 0 0 0 0 0
60 66 30 0 0 7 8 0 0 0 0 0 0 0 0 0 0 0 0 0 0 0 0 0 0 0 0 0 0 0 0 0 0 0 0 0 0 0 0 0 0 0
128 107 72 10 1 24 3 0 0 0 0 0 0 0 0 0 2 0 0 0 0 0 0 0 0 0 0 0 0 0 0 0 0 0 0 0 0 0 0 0 0 0
112 98 92 42 39 44 4 0 0 0 0 0 0 0 0 3 2 0 0 0 0 0 0 0 0 0 0 0 0 0 0 0 0 0 0 0 0 0 0 0 0 0

ECMWFNIL_con_mucape_138.txt.gz
CAPE
919 757 864 800 1007 461 382 392 455 427 523 436 337 427 250 204 204 200 192 236 270 142 5 7 5 8 5 1 0 0 0 0 0 0 0 0 0 0 0 0 0 0
822 689 580 626 521 474 492 540 456 454 475 496 362 343 231 207 202 209 184 257 328 164 8 8 5 4 3 0 0 0 0 0 0 0 0 0 0 0 0 0 0 0
701 602 428 371 507 628 508 381 432 386 553 422 243 258 215 183 223 164 170 212 229 3 5 4 2 2 0 0 0 0 0 0 0 0 0 0 0 0 0 0 0 0
831 696 564 499 621 529 438 365 353 472 446 419 296 224 202 144 145 130 117 0 1 4 6 5 3 1 0 0 0 0 0 0 0 0 0 0 0 0 0 0 0 0
628 631 614 616 535 446 450 423 486 452 404 264 271 226 160 144 0 0 0 4 3 3 8 5 6 2 1 0 0 0 0 0 0 0 0 0 0 0 0 0 0 0
552 635 645 438 417 467 454 416 455 370 364 251 223 12 176 126 0 0 0 2 2 5 6 5 3 3 0 0 0 0 0 0 0 0 0 0 0 0 0 0 0 0
678 662 427 358 550 600 606 491 378 305 272 266 245 203 174 1 0 0 0 1 2 1 2 6 3 2 0 0 0 0 0 0 0 0 0 0 0 0 0 0 0 0
587 470 400 415 419 708 579 576 414 264 236 230 195 170 0 0 0 0 0 0 0 0 2 2 3 0 0 0 0 0 0 0 0 0 0 0 0 0 0 0 0 0
533 655 758 670 645 711 682 630 425 22 251 287 211 0 0 0 18 48 0 0 0 0 0 2 0 0 0 0 0 0 0 0 0 0 0 0 0 0 0 0 0 0
566 653 750 668 596 664 655 449 277 197 250 217 164 0 0 0 76 68 76 0 0 0 0 0 0 0 0 0 0 0 0 0 0 0 0 0 0 0 0 0 0 0
704 672 748 604 516 495 504 533 399 275 175 160 103 12 97 47 64 87 0 0 0 0 0 0 0 0 0 0 0 0 0 0 0 0 0 0 0 0 0 0 0 0
711 830 816 686 582 327 322 433 395 295 252 190 0 0 78 26 0 0 0 0 0 0 0 0 0 0 0 0 0 0 0 0 0 0 0 0 0 0 0 0 0 0
754 749 802 740 600 516 342 308 282 126 65 230 172 0 60 48 40 0 0 0 0 0 0 0 0 0 0 0 0 0 0 0 0 0 0 0 0 0 0 0 0 0
766 748 712 677 508 470 362 269 201 168 156 42 0 15 87 38 0 0 0 0 0 0 0 0 0 0 0 0 0 0 0 0 0 0 0 0 0 0 0 0 0 0
842 742 755 530 444 332 191 27 127 205 209 201 25 86 36 1 1 0 0 0 0 0 0 0 0 0 0 0 0 0 0 0 0 0 0 0 0 0 0 0 0 0
717 734 629 400 366 298 282 252 243 258 236 123 19 41 8 0 0 0 0 0 0 0 0 0 0 0 0 0 0 0 0 0 0 0 0 0 0 0 0 0 0 0
620 687 489 322 309 222 218 222 264 92 0 43 23 1 0 0 0 0 0 0 0 0 0 0 0 0 0 0 0 0 0 0 0 0 0 0 0 0 0 0 0 0
589 610 401 336 262 266 258 286 208 37 61 39 0 2 2 0 0 0 0 0 0 0 0 0 0 0 0 0 0 0 0 0 0 0 0 0 0 0 0 0 0 0
511 516 422 310 258 235 190 84 55 41 27 7 2 3 0 0 0 0 0 0 0 0 0 0 0 0 0 0 0 0 0 0 0 0 0 0 0 0 0 0 0 0
503 448 351 294 282 245 198 170 170 150 4 2 2 3 2 0 0 0 0 0 0 0 0 0 0 0 0 0 0 0 0 0 0 0 0 0 0 0 0 0 0 0
465 355 316 239 185 19 84 0 0 0 0 1 6 11 2 1 0 1 0 0 0 0 0 0 0 0 0 0 0 0 0 0 0 0 0 0 0 0 0 0 0 0
422 349 231 37 68 43 0 0 0 0 1 0 2 1 2 3 8 0 0 0 0 0 0 0 0 0 0 0 0 0 0 0 0 0 0 0 0 0 0 0 0 0
277 193 0 0 0 0 0 0 0 2 2 2 2 4 7 0 0 0 0 0 0 0 0 0 0 0 0 0 0 0 0 0 0 0 0 0 0 0 0 0 0 0
187 154 20 0 0 1 0 2 0 1 2 3 1 0 0 0 0 0 0 0 0 0 0 0 0 0 0 0 0 0 0 0 0 0 0 0 0 0 0 0 0 0
195 188 160 115 0 0 0 0 0 1 1 2 1 0 0 0 0 0 0 0 0 0 0 0 0 0 0 0 0 0 0 0 0 0 0 0 0 0 0 0 0 0
207 241 206 172 0 0 0 0 0 0 0 0 0 0 0 0 0 0 0 0 0 0 0 0 0 0 0 0 0 0 0 0 0 0 0 0 0 0 0 0 0 0

ECMWFNIL_con_mucape_141.txt.gz
CAPE
1453 1254 1143 1173 1271 939 1241 1302 1085 951 782 529 513 626 506 472 482 442 427 228 72 94 2 3 3 2 1 1 0 0 0 0 0 0 0 0 0 0 0 0 0 0
1333 1324 1229 1311 1045 1242 1300 1415 1329 977 744 636 480 474 361 295 345 471 292 27 12 228 2 1 0 0 0 0 0 0 0 0 0 0 0 0 0 0 0 0 0 0
1242 1124 1087 1007 959 858 1269 1167 1143 1054 699 492 406 314 231 158 65 137 78 10 37 189 1 3 2 0 1 1 0 0 0 0 0 0 0 0 0 0 0 0 0 0
1314 1259 1169 831 907 895 872 825 743 578 465 468 375 233 259 142 108 124 121 0 27 172 1 2 1 0 0 0 0 0 0 0 0 0 0 0 0 0 0 0 0 0
1423 1136 805 693 802 989 896 598 523 473 490 421 246 163 142 102 72 87 103 0 1 0 1 1 0 1 0 0 0 0 0 0 0 0 0 0 0 0 0 0 0 0
1383 915 677 567 709 732 514 498 497 508 455 414 164 152 127 114 88 96 13 1 1 1 1 0 0 0 0 0 0 0 0 0 0 0 0 0 0 0 0 0 0 0
1466 1136 954 646 723 556 576 459 346 434 468 224 217 144 135 84 52 0 0 0 1 0 0 0 3 0 0 0 0 0 0 0 0 0 0 0 0 0 0 0 0 0
1199 1252 1035 835 772 560 517 459 348 429 399 357 213 148 122 86 0 1 0 0 0 1 2 0 1 0 0 0 0 0 0 0 0 0 0 0 0 0 0 0 0 0
1489 1388 1158 959 625 446 357 464 473 543 433 343 144 128 83 114 121 0 1 2 1 3 1 1 1 0 0 0 0 0 0 0 0 0 0 0 0 0 0 0 0 0
1242 1030 827 667 532 449 409 434 535 537 388 129 196 173 101 3 0 0 0 4 3 2 1 1 0 0 0 0 0 0 0 0 0 0 0 0 0 0 0 0 0 0
982 764 702 606 498 417 335 433 546 469 247 171 223 11 24 2 20 1 1 1 3 1 0 0 0 0 0 0 0 0 0 0 0 0 0 0 0 0 0 0 0 0
883 713 597 493 457 343 131 344 433 282 201 223 127 1 2 27 6 0 0 0 0 0 1 0 0 0 0 0 0 0 0 0 0 0 0 0 0 0 0 0 0 0
848 690 625 550 540 487 377 261 203 212 0 79 81 125 27 5 0 1 2 0 0 0 0 0 0 0 0 0 0 0 0 0 0 0 0 0 0 0 0 0 0 0
662 578 527 550 592 570 366 190 223 230 186 171 148 64 23 20 0 0 1 1 0 0 0 0 0 0 0 0 0 0 0 0 0 0 0 0 0 0 0 0 0 0
402 324 399 593 664 588 410 115 64 180 82 166 156 167 108 1 0 1 1 1 0 1 0 0 0 0 0 0 0 0 0 0 0 0 0 0 0 0 0 0 0 0
250 366 604 838 745 628 420 463 367 264 98 60 82 74 2 0 0 1 2 0 0 0 0 0 0 0 0 0 0 0 0 0 0 0 0 0 0 0 0 0 0 0
529 668 901 836 756 552 477 476 440 314 13 1 28 4 2 0 0 2 1 2 0 0 0 0 0 0 0 0 0 0 0 0 0 0 0 0 0 0 0 0 0 0
840 840 879 802 676 518 460 395 354 84 63 46 39 0 0 4 2 2 0 0 0 0 0 0 0 0 0 0 0 0 0 0 0 0 0 0 0 0 0 0 0 0
948 855 843 570 425 387 390 353 119 171 158 138 72 20 1 3 0 1 1 0 0 0 0 0 0 0 0 0 0 0 0 0 0 0 0 0 0 0 0 0 0 0
846 888 682 437 406 357 274 0 0 189 165 100 26 0 2 2 2 3 0 0 0 0 0 0 0 0 0 0 0 0 0 0 0 0 0 0 0 0 0 0 0 0
742 741 532 422 382 314 244 232 222 188 141 44 0 1 2 3 2 0 0 0 0 0 0 0 0 0 0 0 0 0 0 0 0 0 0 0 0 0 0 0 0 0
763 668 359 357 291 363 280 236 196 187 190 46 1 0 0 2 0 10 8 0 0 0 0 0 0 0 0 0 0 0 0 0 0 0 0 0 0 0 0 0 0 0
736 744 583 437 357 349 332 268 194 162 145 41 2 3 2 0 10 17 11 1 0 0 0 0 0 0 0 0 0 0 0 0 0 0 0 0 0 0 0 0 0 0
676 659 635 510 409 365 290 114 49 22 3 4 3 4 2 12 0 0 0 1 0 0 0 0 0 0 0 0 0 0 2 0 0 0 0 0 0 0 0 0 0 0
623 542 466 379 254 225 168 166 92 4 3 4 5 3 2 0 0 0 0 0 0 0 0 0 0 0 0 0 0 0 0 0 0 0 0 0 0 0 0 0 0 0
542 426 364 225 102 4 6 12 4 1 3 3 3 1 0 0 0 0 0 0 0 0 0 0 0 0 0 0 0 0 0 0 0 0 0 0 0 0 0 0 0 0

ECMWFNIL_con_mucape_144.txt.gz
CAPE
1471 1377 1442 1427 1247 976 1062 1106 1034 884 905 995 925 639 631 613 573 589 362 377 291 210 174 6 0 1 1 0 2 0 0 0 0 0 0 0 0 0 0 0 0 0
1440 1585 1582 1615 1500 1193 1204 1152 1081 976 963 838 607 515 552 486 431 369 324 277 192 129 0 0 0 0 0 0 0 0 0 0 0 0 0 0 0 0 0 0 0 0
1543 1628 1612 1472 1397 1267 1159 1144 1166 1039 672 612 554 546 498 445 308 320 296 220 0 0 0 0 0 0 0 0 0 0 0 0 0 0 0 0 0 0 0 0 0 0
1516 1237 1408 1392 1124 981 767 743 885 658 494 538 595 473 490 485 344 289 164 83 0 0 0 0 0 0 0 0 0 0 0 0 0 0 0 0 0 0 0 0 0 0
1552 1365 1339 1376 1263 1106 947 796 687 565 492 484 514 381 386 250 230 241 112 86 0 0 0 0 0 0 0 0 0 0 0 0 0 0 0 0 0 0 0 0 0 0
1350 1310 1243 1037 1151 1140 914 707 618 552 493 523 458 353 265 225 177 156 64 98 76 0 0 0 0 0 0 0 0 0 0 0 0 0 0 0 0 0 0 0 0 0
1392 1222 1044 1084 1076 958 691 618 574 521 537 475 412 343 267 178 132 23 35 56 85 36 0 0 0 0 0 0 0 0 0 0 0 0 0 0 0 0 0 0 0 0
1404 1076 1020 1026 1004 722 632 481 481 522 503 486 419 258 199 115 82 39 38 76 76 1 0 0 0 0 0 0 0 0 0 0 0 0 0 0 0 0 0 0 0 0
1259 924 927 936 753 511 397 399 473 486 519 480 293 208 151 100 56 69 56 51 0 0 0 0 0 0 0 0 0 0 0 0 0 0 0 0 0 0 0 0 0 0
1147 917 970 923 560 394 83 398 451 444 458 479 213 202 2 55 0 25 1 0 0 0 0 0 0 0 0 0 0 0 0 0 0 0 0 0 0 0 0 0 0 0
1270 1038 1004 738 571 446 415 531 485 370 460 384 227 212 3 51 35 52 32 0 0 0 0 0 0 0 0 0 0 0 0 0 0 0 0 0 0 0 0 0 0 0
1195 1026 769 626 492 421 490 575 427 441 432 370 287 243 6 48 16 0 0 0 0 0 0 0 0 0 0 0 0 0 0 0 0 0 0 0 0 0 0 0 0 0
960 844 689 542 469 462 450 270 404 483 469 345 331 182 88 90 0 0 0 0 0 0 0 0 0 0 0 0 0 0 0 0 0 0 0 0 0 0 0 0 0 0
807 677 550 581 522 541 484 361 258 413 488 438 307 120 96 0 0 0 0 0 0 0 0 0 0 0 0 0 0 0 0 0 0 0 0 0 0 0 0 0 0 0
732 567 554 646 667 599 500 138 38 351 492 458 0 0 0 0 0 0 0 0 0 0 0 0 0 0 0 0 0 0 0 0 0 0 0 0 0 0 0 0 0 0
616 590 592 605 626 569 446 103 0 254 484 386 244 0 0 0 0 0 0 0 0 0 0 0 0 0 0 0 0 0 0 0 0 0 0 0 0 0 0 0 0 0
748 827 722 613 560 446 411 369 349 434 446 321 0 0 0 0 2 0 0 0 0 0 0 0 0 0 0 0 0 0 0 0 0 0 0 0 0 0 0 0 0 0
934 914 750 570 344 326 446 460 348 352 333 0 0 0 0 31 0 88 0 0 0 0 0 0 0 0 0 0 0 0 0 0 0 0 0 0 0 0 0 0 0 0
881 754 564 294 292 355 526 432 32 243 79 0 0 4 12 0 0 8 0 0 0 0 0 0 0 0 0 0 0 0 0 0 0 0 0 0 0 0 0 0 0 0
650 454 402 262 459 589 516 317 325 253 228 188 0 29 60 0 58 157 0 0 0 0 0 0 0 0 0 0 0 0 0 0 0 0 0 0 0 0 0 0 0 0
415 404 368 496 617 581 481 347 307 286 268 204 0 86 59 40 21 1 0 0 0 0 0 0 0 0 0 0 0 0 0 0 0 0 0 0 0 0 0 0 0 0
429 411 407 620 653 589 484 392 411 380 314 248 169 171 159 69 2 0 0 0 0 0 0 0 0 0 0 0 0 0 0 0 0 0 0 0 0 0 0 0 0 0
566 612 664 758 680 507 414 406 368 334 301 234 164 156 116 63 0 0 0 0 0 0 13 0 0 0 0 0 0 0 0 0 0 0 0 0 0 0 0 0 0 0
796 739 770 736 718 503 286 288 355 366 322 223 91 42 73 12 0 0 0 0 15 57 0 0 23 16 2 0 0 0 0 0 0 0 0 0 0 0 0 0 0 0
748 808 654 573 565 516 400 369 375 366 286 244 173 102 114 122 0 0 0 0 2 37 71 58 44 13 0 0 0 0 0 0 0 0 0 0 0 0 0 0 0 0
747 668 690 639 423 343 274 272 288 266 263 204 222 141 86 0 0 0 0 0 0 1 14 28 6 0 0 0 0 0 0 0 0 0 0 0 0 0 0 0 0 0